Powrót do katalogu

FENGYUN 1C

AktywnyPogodaSSO
NORAD 25730·PAYLOAD·🇨🇳 China

Wystrzelony May 10, 1999 z Taiyuan Satellite Launch Center

Loading…

Następne Przeloty (najbliższe 24 godziny)

TLE

ŚwieżeSource: Space-Track

Epoka: Sep 14, 2026, 04:53 UTC

1 25730U 99025A   26257.20386953  .00001632  00000-0  68576-3 0  9997
2 25730  98.8586 331.8957 0012843   8.2677 351.8712 14.27247752410651

Śledź FENGYUN 1C w czasie rzeczywistym z AllMySat

Download on the App Store